Year,Month,Day,Hour,Minute,Value (Times are PST for temperature in C)
2015,06,07,00,00,13.60
2015,06,07,00,01,13.60
2015,06,07,00,02,13.60
2015,06,07,00,03,13.60
2015,06,07,00,04,13.60
2015,06,07,00,05,13.60
2015,06,07,00,06,13.60
2015,06,07,00,07,13.60
2015,06,07,00,08,13.60
2015,06,07,00,09,13.60
2015,06,07,00,10,13.60
2015,06,07,00,11,13.60
2015,06,07,00,12,13.60
2015,06,07,00,13,13.60
2015,06,07,00,14,13.50
2015,06,07,00,15,13.50
2015,06,07,00,16,13.50
2015,06,07,00,17,13.50
2015,06,07,00,18,13.50
2015,06,07,00,19,13.50
2015,06,07,00,20,13.50
2015,06,07,00,21,13.50
2015,06,07,00,22,13.50
2015,06,07,00,23,13.50
2015,06,07,00,24,13.50
2015,06,07,00,25,13.50
2015,06,07,00,26,13.50
2015,06,07,00,27,13.50
2015,06,07,00,28,13.50
2015,06,07,00,29,13.50
2015,06,07,00,30,13.60
2015,06,07,00,31,13.60
2015,06,07,00,32,13.60
2015,06,07,00,33,13.60
2015,06,07,00,34,13.60
2015,06,07,00,35,13.60
2015,06,07,00,36,13.70
2015,06,07,00,37,13.70
2015,06,07,00,38,13.70
2015,06,07,00,39,13.70
2015,06,07,00,40,13.70
2015,06,07,00,41,13.70
2015,06,07,00,42,13.70
2015,06,07,00,43,13.70
2015,06,07,00,44,13.70
2015,06,07,00,45,13.70
2015,06,07,00,46,13.70
2015,06,07,00,47,13.70
2015,06,07,00,48,13.60
2015,06,07,00,49,13.60
2015,06,07,00,50,13.60
2015,06,07,00,51,13.60
2015,06,07,00,52,13.60
2015,06,07,00,53,13.50
2015,06,07,00,54,13.50
2015,06,07,00,55,13.50
2015,06,07,00,56,13.50
2015,06,07,00,57,13.50
2015,06,07,00,58,13.50
2015,06,07,00,59,13.50
2015,06,07,01,00,13.50
2015,06,07,01,01,13.50
2015,06,07,01,02,13.50
2015,06,07,01,03,13.50
2015,06,07,01,04,13.50
2015,06,07,01,05,13.50
2015,06,07,01,06,13.50
2015,06,07,01,07,13.50
2015,06,07,01,08,13.50
2015,06,07,01,09,13.50
2015,06,07,01,10,13.50
2015,06,07,01,11,13.50
2015,06,07,01,12,13.50
2015,06,07,01,13,13.50
2015,06,07,01,14,13.50
2015,06,07,01,15,13.50
2015,06,07,01,16,13.50
2015,06,07,01,17,13.50
2015,06,07,01,18,13.50
2015,06,07,01,19,13.50
2015,06,07,01,20,13.50
2015,06,07,01,21,13.50
2015,06,07,01,22,13.50
2015,06,07,01,23,13.50
2015,06,07,01,24,13.50
2015,06,07,01,25,13.50
2015,06,07,01,26,13.40
2015,06,07,01,27,13.40
2015,06,07,01,28,13.40
2015,06,07,01,29,13.40
2015,06,07,01,30,13.40
2015,06,07,01,31,13.40
2015,06,07,01,32,13.40
2015,06,07,01,33,13.40
2015,06,07,01,34,13.30
2015,06,07,01,35,13.30
2015,06,07,01,36,13.30
2015,06,07,01,37,13.30
2015,06,07,01,38,13.30
2015,06,07,01,39,13.30
2015,06,07,01,40,13.30
2015,06,07,01,41,13.30
2015,06,07,01,42,13.20
2015,06,07,01,43,13.20
2015,06,07,01,44,13.20
2015,06,07,01,45,13.20
2015,06,07,01,46,13.20
2015,06,07,01,47,13.20
2015,06,07,01,48,13.10
2015,06,07,01,49,13.10
2015,06,07,01,50,13.10
2015,06,07,01,51,13.10
2015,06,07,01,52,13.10
2015,06,07,01,53,13.10
2015,06,07,01,54,13.10
2015,06,07,01,55,13.00
2015,06,07,01,56,13.00
2015,06,07,01,57,12.90
2015,06,07,01,58,12.90
2015,06,07,01,59,12.90
2015,06,07,02,00,12.80
2015,06,07,02,01,12.80
2015,06,07,02,02,12.80
2015,06,07,02,03,12.80
2015,06,07,02,04,12.80
2015,06,07,02,05,12.80
2015,06,07,02,06,12.80
2015,06,07,02,07,12.80
2015,06,07,02,08,12.70
2015,06,07,02,09,12.70
2015,06,07,02,10,12.70
2015,06,07,02,11,12.70
2015,06,07,02,12,12.70
2015,06,07,02,13,12.70
2015,06,07,02,14,12.70
2015,06,07,02,15,12.70
2015,06,07,02,16,12.70
2015,06,07,02,17,12.70
2015,06,07,02,18,12.60
2015,06,07,02,19,12.60
2015,06,07,02,20,12.60
2015,06,07,02,21,12.60
2015,06,07,02,22,12.60
2015,06,07,02,23,12.60
2015,06,07,02,24,12.60
2015,06,07,02,25,12.60
2015,06,07,02,26,12.60
2015,06,07,02,27,12.60
2015,06,07,02,28,12.60
2015,06,07,02,29,12.60
2015,06,07,02,30,12.60
2015,06,07,02,31,12.60
2015,06,07,02,32,12.60
2015,06,07,02,33,12.60
2015,06,07,02,34,12.60
2015,06,07,02,35,12.50
2015,06,07,02,36,12.50
2015,06,07,02,37,12.50
2015,06,07,02,38,12.50
2015,06,07,02,39,12.50
2015,06,07,02,40,12.50
2015,06,07,02,41,12.50
2015,06,07,02,42,12.50
2015,06,07,02,43,12.40
2015,06,07,02,44,12.40
2015,06,07,02,45,12.40
2015,06,07,02,46,12.40
2015,06,07,02,47,12.40
2015,06,07,02,48,12.40
2015,06,07,02,49,12.30
2015,06,07,02,50,12.30
2015,06,07,02,51,12.30
2015,06,07,02,52,12.30
2015,06,07,02,53,12.30
2015,06,07,02,54,12.30
2015,06,07,02,55,12.30
2015,06,07,02,56,12.30
2015,06,07,02,57,12.30
2015,06,07,02,58,12.30
2015,06,07,02,59,12.30
2015,06,07,03,00,12.30
2015,06,07,03,01,12.30
2015,06,07,03,02,12.30
2015,06,07,03,03,12.30
2015,06,07,03,04,12.20
2015,06,07,03,05,12.20
2015,06,07,03,06,12.20
2015,06,07,03,07,12.20
2015,06,07,03,08,12.20
2015,06,07,03,09,12.20
2015,06,07,03,10,12.20
2015,06,07,03,11,12.20
2015,06,07,03,12,12.20
2015,06,07,03,13,12.20
2015,06,07,03,14,12.20
2015,06,07,03,15,12.20
2015,06,07,03,16,12.20
2015,06,07,03,17,12.20
2015,06,07,03,18,12.20
2015,06,07,03,19,12.10
2015,06,07,03,20,12.10
2015,06,07,03,21,12.10
2015,06,07,03,22,12.10
2015,06,07,03,23,12.10
2015,06,07,03,24,12.10
2015,06,07,03,25,12.10
2015,06,07,03,26,12.10
2015,06,07,03,27,12.10
2015,06,07,03,28,12.10
2015,06,07,03,29,12.10
2015,06,07,03,30,12.10
2015,06,07,03,31,12.10
2015,06,07,03,32,12.10
2015,06,07,03,33,12.10
2015,06,07,03,34,12.00
2015,06,07,03,35,12.00
2015,06,07,03,36,12.00
2015,06,07,03,37,12.00
2015,06,07,03,38,12.00
2015,06,07,03,39,12.00
2015,06,07,03,40,12.00
2015,06,07,03,41,12.00
2015,06,07,03,42,12.00
2015,06,07,03,43,12.00
2015,06,07,03,44,12.00
2015,06,07,03,45,12.00
2015,06,07,03,46,12.00
2015,06,07,03,47,12.00
2015,06,07,03,48,12.00
2015,06,07,03,49,11.90
2015,06,07,03,50,11.90
2015,06,07,03,51,11.90
2015,06,07,03,52,12.00
2015,06,07,03,53,12.00
2015,06,07,03,54,12.00
2015,06,07,03,55,12.00
2015,06,07,03,56,12.00
2015,06,07,03,57,12.00
2015,06,07,03,58,12.00
2015,06,07,03,59,12.00
2015,06,07,04,00,12.00
2015,06,07,04,01,12.00
2015,06,07,04,02,12.00
2015,06,07,04,03,11.90
2015,06,07,04,04,11.90
2015,06,07,04,05,11.90
2015,06,07,04,06,11.90
2015,06,07,04,07,11.90
2015,06,07,04,08,11.90
2015,06,07,04,09,11.90
2015,06,07,04,10,11.90
2015,06,07,04,11,11.90
2015,06,07,04,12,11.90
2015,06,07,04,13,11.90
2015,06,07,04,14,11.90
2015,06,07,04,15,11.90
2015,06,07,04,16,11.80
2015,06,07,04,17,11.80
2015,06,07,04,18,11.80
2015,06,07,04,19,11.80
2015,06,07,04,20,11.80
2015,06,07,04,21,11.80
2015,06,07,04,22,11.80
2015,06,07,04,23,11.80
2015,06,07,04,24,11.80
2015,06,07,04,25,11.80
2015,06,07,04,26,11.80
2015,06,07,04,27,11.80
2015,06,07,04,28,11.80
2015,06,07,04,29,11.80
2015,06,07,04,30,11.80
2015,06,07,04,31,11.80
2015,06,07,04,32,11.80
2015,06,07,04,33,11.80
2015,06,07,04,34,11.80
2015,06,07,04,35,11.70
2015,06,07,04,36,11.70
2015,06,07,04,37,11.70
2015,06,07,04,38,11.70
2015,06,07,04,39,11.70
2015,06,07,04,40,11.70
2015,06,07,04,41,11.70
2015,06,07,04,42,11.70
2015,06,07,04,43,11.70
2015,06,07,04,44,11.70
2015,06,07,04,45,11.70
2015,06,07,04,46,11.70
2015,06,07,04,47,11.70
2015,06,07,04,48,11.70
2015,06,07,04,49,11.60
2015,06,07,04,50,11.60
2015,06,07,04,51,11.60
2015,06,07,04,52,11.70
2015,06,07,04,53,11.70
2015,06,07,04,54,11.70
2015,06,07,04,55,11.70
2015,06,07,04,56,11.70
2015,06,07,04,57,11.70
2015,06,07,04,58,11.80
2015,06,07,04,59,11.80
2015,06,07,05,00,11.80
2015,06,07,05,01,11.80
2015,06,07,05,02,11.70
2015,06,07,05,03,11.70
2015,06,07,05,04,11.70
2015,06,07,05,05,11.70
2015,06,07,05,06,11.70
2015,06,07,05,07,11.70
2015,06,07,05,08,11.70
2015,06,07,05,09,11.60
2015,06,07,05,10,11.60
2015,06,07,05,11,11.60
2015,06,07,05,12,11.60
2015,06,07,05,13,11.60
2015,06,07,05,14,11.60
2015,06,07,05,15,11.60
2015,06,07,05,16,11.60
2015,06,07,05,17,11.50
2015,06,07,05,18,11.40
2015,06,07,05,19,11.40
2015,06,07,05,20,11.40
2015,06,07,05,21,11.40
2015,06,07,05,22,11.40
2015,06,07,05,23,11.40
2015,06,07,05,24,11.40
2015,06,07,05,25,11.40
2015,06,07,05,26,11.40
2015,06,07,05,27,11.40
2015,06,07,05,28,11.40
2015,06,07,05,29,11.40
2015,06,07,05,30,11.40
2015,06,07,05,31,11.50
2015,06,07,05,32,11.60
2015,06,07,05,33,11.60
2015,06,07,05,34,11.60
2015,06,07,05,35,11.50
2015,06,07,05,36,11.40
2015,06,07,05,37,11.40
2015,06,07,05,38,11.40
2015,06,07,05,39,11.40
2015,06,07,05,40,11.40
2015,06,07,05,41,11.40
2015,06,07,05,42,11.40
2015,06,07,05,43,11.40
2015,06,07,05,44,11.50
2015,06,07,05,45,11.60
2015,06,07,05,46,11.60
2015,06,07,05,47,11.60
2015,06,07,05,48,11.60
2015,06,07,05,49,11.60
2015,06,07,05,50,11.60
2015,06,07,05,51,11.60
2015,06,07,05,52,11.60
2015,06,07,05,53,11.70
2015,06,07,05,54,11.80
2015,06,07,05,55,11.80
2015,06,07,05,56,11.80
2015,06,07,05,57,11.90
2015,06,07,05,58,11.90
2015,06,07,05,59,11.90
2015,06,07,06,00,12.00
2015,06,07,06,01,12.00
2015,06,07,06,02,12.00
2015,06,07,06,03,12.10
2015,06,07,06,04,12.10
2015,06,07,06,05,12.10
2015,06,07,06,06,12.20
2015,06,07,06,07,12.20
2015,06,07,06,08,12.20
2015,06,07,06,09,12.20
2015,06,07,06,10,12.30
2015,06,07,06,11,12.30
2015,06,07,06,12,12.30
2015,06,07,06,13,12.30
2015,06,07,06,14,12.30
2015,06,07,06,15,12.30
2015,06,07,06,16,12.30
2015,06,07,06,17,12.40
2015,06,07,06,18,12.40
2015,06,07,06,19,12.50
2015,06,07,06,20,12.50
2015,06,07,06,21,12.60
2015,06,07,06,22,12.60
2015,06,07,06,23,12.70
2015,06,07,06,24,12.80
2015,06,07,06,25,12.80
2015,06,07,06,26,12.90
2015,06,07,06,27,13.00
2015,06,07,06,28,13.10
2015,06,07,06,29,13.20
2015,06,07,06,30,13.30
2015,06,07,06,31,13.30
2015,06,07,06,32,13.30
2015,06,07,06,33,13.40
2015,06,07,06,34,13.40
2015,06,07,06,35,13.50
2015,06,07,06,36,13.50
2015,06,07,06,37,13.60
2015,06,07,06,38,13.60
2015,06,07,06,39,13.60
2015,06,07,06,40,13.70
2015,06,07,06,41,13.70
2015,06,07,06,42,13.70
2015,06,07,06,43,13.70
2015,06,07,06,44,13.80
2015,06,07,06,45,13.90
2015,06,07,06,46,14.00
2015,06,07,06,47,14.00
2015,06,07,06,48,14.00
2015,06,07,06,49,14.00
2015,06,07,06,50,14.10
2015,06,07,06,51,14.20
2015,06,07,06,52,14.20
2015,06,07,06,53,14.20
2015,06,07,06,54,14.30
2015,06,07,06,55,14.50
2015,06,07,06,56,14.60
2015,06,07,06,57,14.70
2015,06,07,06,58,14.80
2015,06,07,06,59,15.00
2015,06,07,07,00,15.00
2015,06,07,07,01,15.10
2015,06,07,07,02,15.20
2015,06,07,07,03,15.30
2015,06,07,07,04,15.40
2015,06,07,07,05,15.50
2015,06,07,07,06,15.50
2015,06,07,07,07,15.50
2015,06,07,07,08,15.50
2015,06,07,07,09,15.50
2015,06,07,07,10,15.50
2015,06,07,07,11,15.50
2015,06,07,07,12,15.50
2015,06,07,07,13,15.50
2015,06,07,07,14,15.50
2015,06,07,07,15,15.60
2015,06,07,07,16,15.60
2015,06,07,07,17,15.70
2015,06,07,07,18,15.80
2015,06,07,07,19,15.80
2015,06,07,07,20,15.90
2015,06,07,07,21,16.00
2015,06,07,07,22,16.10
2015,06,07,07,23,16.10
2015,06,07,07,24,16.10
2015,06,07,07,25,16.10
2015,06,07,07,26,16.10
2015,06,07,07,27,16.10
2015,06,07,07,28,16.20
2015,06,07,07,29,16.20
2015,06,07,07,30,16.20
2015,06,07,07,31,16.20
2015,06,07,07,32,16.20
2015,06,07,07,33,16.30
2015,06,07,07,34,16.30
2015,06,07,07,35,16.40
2015,06,07,07,36,16.40
2015,06,07,07,37,16.40
2015,06,07,07,38,16.50
2015,06,07,07,39,16.60
2015,06,07,07,40,16.60
2015,06,07,07,41,16.70
2015,06,07,07,42,16.70
2015,06,07,07,43,16.80
2015,06,07,07,44,16.80
2015,06,07,07,45,16.90
2015,06,07,07,46,16.90
2015,06,07,07,47,17.00
2015,06,07,07,48,17.00
2015,06,07,07,49,17.10
2015,06,07,07,50,17.10
2015,06,07,07,51,17.20
2015,06,07,07,52,17.30
2015,06,07,07,53,17.30
2015,06,07,07,54,17.30
2015,06,07,07,55,17.40
2015,06,07,07,56,17.40
2015,06,07,07,57,17.50
2015,06,07,07,58,17.60
2015,06,07,07,59,17.60
2015,06,07,08,00,17.70
2015,06,07,08,01,17.70
2015,06,07,08,02,17.80
2015,06,07,08,03,17.90
2015,06,07,08,04,17.90
2015,06,07,08,05,17.90
2015,06,07,08,06,17.90
2015,06,07,08,07,17.90
2015,06,07,08,08,17.90
2015,06,07,08,09,17.90
2015,06,07,08,10,17.80
2015,06,07,08,11,17.80
2015,06,07,08,12,17.80
2015,06,07,08,13,17.80
2015,06,07,08,14,17.80
2015,06,07,08,15,17.80
2015,06,07,08,16,17.90
2015,06,07,08,17,17.90
2015,06,07,08,18,17.90
2015,06,07,08,19,17.80
2015,06,07,08,20,17.70
2015,06,07,08,21,17.50
2015,06,07,08,22,17.50
2015,06,07,08,23,17.50
2015,06,07,08,24,17.50
2015,06,07,08,25,17.50
2015,06,07,08,26,17.50
2015,06,07,08,27,17.40
2015,06,07,08,28,17.40
2015,06,07,08,29,17.40
2015,06,07,08,30,17.40
2015,06,07,08,31,17.40
2015,06,07,08,32,17.30
2015,06,07,08,33,17.30
2015,06,07,08,34,17.30
2015,06,07,08,35,17.30
2015,06,07,08,36,17.00
2015,06,07,08,37,17.00
2015,06,07,08,38,16.90
2015,06,07,08,39,16.90
2015,06,07,08,40,16.80
2015,06,07,08,41,16.70
2015,06,07,08,42,16.70
2015,06,07,08,43,16.70
2015,06,07,08,44,16.80
2015,06,07,08,45,16.90
2015,06,07,08,46,17.00
2015,06,07,08,47,17.00
2015,06,07,08,48,17.10
2015,06,07,08,49,17.10
2015,06,07,08,50,17.10
2015,06,07,08,51,17.20
2015,06,07,08,52,17.30
2015,06,07,08,53,17.30
2015,06,07,08,54,17.40
2015,06,07,08,55,17.40
2015,06,07,08,56,17.40
2015,06,07,08,57,17.40
2015,06,07,08,58,17.40
2015,06,07,08,59,17.40
2015,06,07,09,00,17.40
2015,06,07,09,01,17.40
2015,06,07,09,02,17.50
2015,06,07,09,03,17.50
2015,06,07,09,04,17.60
2015,06,07,09,05,17.70
2015,06,07,09,06,17.70
2015,06,07,09,07,17.80
2015,06,07,09,08,17.90
2015,06,07,09,09,17.80
2015,06,07,09,10,17.70
2015,06,07,09,11,17.50
2015,06,07,09,12,17.40
2015,06,07,09,13,17.30
2015,06,07,09,14,17.30
2015,06,07,09,15,17.30
2015,06,07,09,16,17.30
2015,06,07,09,17,17.30
2015,06,07,09,18,17.20
2015,06,07,09,19,17.20
2015,06,07,09,20,17.10
2015,06,07,09,21,17.00
2015,06,07,09,22,17.00
2015,06,07,09,23,17.10
2015,06,07,09,24,17.10
2015,06,07,09,25,17.10
2015,06,07,09,26,17.20
2015,06,07,09,27,17.30
2015,06,07,09,28,17.40
2015,06,07,09,29,17.50
2015,06,07,09,30,17.70
2015,06,07,09,31,17.80
2015,06,07,09,32,17.90
2015,06,07,09,33,18.10
2015,06,07,09,34,18.20
2015,06,07,09,35,18.20
2015,06,07,09,36,18.20
2015,06,07,09,37,18.20
2015,06,07,09,38,18.20
2015,06,07,09,39,18.20
2015,06,07,09,40,18.20
2015,06,07,09,41,18.20
2015,06,07,09,42,18.10
2015,06,07,09,43,18.00
2015,06,07,09,44,17.90
2015,06,07,09,45,17.90
2015,06,07,09,46,17.90
2015,06,07,09,47,17.80
2015,06,07,09,48,17.80
2015,06,07,09,49,17.80
2015,06,07,09,50,17.90
2015,06,07,09,51,17.90
2015,06,07,09,52,17.90
2015,06,07,09,53,17.90
2015,06,07,09,54,17.90
2015,06,07,09,55,17.90
2015,06,07,09,56,17.90
2015,06,07,09,57,17.90
2015,06,07,09,58,18.00
2015,06,07,09,59,18.10
2015,06,07,10,00,18.10
2015,06,07,10,01,18.20
2015,06,07,10,02,18.30
2015,06,07,10,03,18.40
2015,06,07,10,04,18.50
2015,06,07,10,05,18.50
2015,06,07,10,06,18.60
2015,06,07,10,07,18.70
2015,06,07,10,08,18.80
2015,06,07,10,09,18.90
2015,06,07,10,10,19.00
2015,06,07,10,11,19.10
2015,06,07,10,12,19.10
2015,06,07,10,13,19.10
2015,06,07,10,14,19.10
2015,06,07,10,15,19.10
2015,06,07,10,16,19.10
2015,06,07,10,17,19.10
2015,06,07,10,18,19.20
2015,06,07,10,19,19.30
2015,06,07,10,20,19.30
2015,06,07,10,21,19.40
2015,06,07,10,22,19.40
2015,06,07,10,23,19.60
2015,06,07,10,24,19.70
2015,06,07,10,25,19.80
2015,06,07,10,26,19.90
2015,06,07,10,27,20.10
2015,06,07,10,28,20.20
2015,06,07,10,29,20.30
2015,06,07,10,30,20.40
2015,06,07,10,31,20.50
2015,06,07,10,32,20.60
2015,06,07,10,33,20.70
2015,06,07,10,34,20.70
2015,06,07,10,35,20.80
2015,06,07,10,36,20.90
2015,06,07,10,37,21.00
2015,06,07,10,38,21.10
2015,06,07,10,39,21.30
2015,06,07,10,40,21.30
2015,06,07,10,41,21.50
2015,06,07,10,42,21.60
2015,06,07,10,43,21.60
2015,06,07,10,44,21.60
2015,06,07,10,45,21.60
2015,06,07,10,46,21.70
2015,06,07,10,47,21.70
2015,06,07,10,48,21.80
2015,06,07,10,49,21.80
2015,06,07,10,50,21.80
2015,06,07,10,51,21.80
2015,06,07,10,52,21.70
2015,06,07,10,53,21.70
2015,06,07,10,54,21.60
2015,06,07,10,55,21.60
2015,06,07,10,56,21.50
2015,06,07,10,57,21.30
2015,06,07,10,58,21.10
2015,06,07,10,59,21.00
2015,06,07,11,00,20.80
2015,06,07,11,01,20.60
2015,06,07,11,02,20.50
2015,06,07,11,03,20.30
2015,06,07,11,04,20.10
2015,06,07,11,05,19.90
2015,06,07,11,06,19.70
2015,06,07,11,07,19.50
2015,06,07,11,08,19.40
2015,06,07,11,09,19.30
2015,06,07,11,10,19.30
2015,06,07,11,11,19.20
2015,06,07,11,12,19.20
2015,06,07,11,13,19.20
2015,06,07,11,14,19.10
2015,06,07,11,15,19.00
2015,06,07,11,16,18.80
2015,06,07,11,17,18.70
2015,06,07,11,18,18.60
2015,06,07,11,19,18.50
2015,06,07,11,20,18.40
2015,06,07,11,21,18.30
2015,06,07,11,22,18.30
2015,06,07,11,23,18.20
2015,06,07,11,24,18.20
2015,06,07,11,25,18.20
2015,06,07,11,26,18.20
2015,06,07,11,27,18.20
2015,06,07,11,28,18.20
2015,06,07,11,29,18.30
2015,06,07,11,30,18.40
2015,06,07,11,31,18.50
2015,06,07,11,32,18.50
2015,06,07,11,33,18.60
2015,06,07,11,34,18.60
2015,06,07,11,35,18.60
2015,06,07,11,36,18.70
2015,06,07,11,37,18.70
2015,06,07,11,38,18.70
2015,06,07,11,39,18.70
2015,06,07,11,40,18.90
2015,06,07,11,41,18.90
2015,06,07,11,42,18.90
2015,06,07,11,43,18.90
2015,06,07,11,44,18.90
2015,06,07,11,45,18.90
2015,06,07,11,46,18.90
2015,06,07,11,47,18.90
2015,06,07,11,48,18.90
2015,06,07,11,49,18.90
2015,06,07,11,50,19.00
2015,06,07,11,51,19.10
2015,06,07,11,52,19.10
2015,06,07,11,53,19.20
2015,06,07,11,54,19.30
2015,06,07,11,55,19.40
2015,06,07,11,56,19.40
2015,06,07,11,57,19.50
2015,06,07,11,58,19.50
2015,06,07,11,59,19.50
2015,06,07,12,00,19.50
2015,06,07,12,01,19.50
2015,06,07,12,02,19.50
2015,06,07,12,03,19.40
2015,06,07,12,04,19.40
2015,06,07,12,05,19.30
2015,06,07,12,06,19.40
2015,06,07,12,07,19.40
2015,06,07,12,08,19.50
2015,06,07,12,09,19.50
2015,06,07,12,10,19.60
2015,06,07,12,11,19.50
2015,06,07,12,12,19.40
2015,06,07,12,13,19.30
2015,06,07,12,14,19.30
2015,06,07,12,15,19.30
2015,06,07,12,16,19.20
2015,06,07,12,17,19.20
2015,06,07,12,18,19.30
2015,06,07,12,19,19.30
2015,06,07,12,20,19.30
2015,06,07,12,21,19.30
2015,06,07,12,22,19.30
2015,06,07,12,23,19.20
2015,06,07,12,24,19.20
2015,06,07,12,25,19.20
2015,06,07,12,26,19.20
2015,06,07,12,27,19.20
2015,06,07,12,28,19.20
2015,06,07,12,29,19.30
2015,06,07,12,30,19.30
2015,06,07,12,31,19.30
2015,06,07,12,32,19.30
2015,06,07,12,33,19.20
2015,06,07,12,34,19.10
2015,06,07,12,35,19.10
2015,06,07,12,36,19.20
2015,06,07,12,37,19.30
2015,06,07,12,38,19.50
2015,06,07,12,39,19.70
2015,06,07,12,40,19.80
2015,06,07,12,41,20.00
2015,06,07,12,42,20.10
2015,06,07,12,43,20.10
2015,06,07,12,44,20.10
2015,06,07,12,45,20.10
2015,06,07,12,46,20.10
2015,06,07,12,47,20.10
2015,06,07,12,48,20.20
2015,06,07,12,49,20.30
2015,06,07,12,50,20.40
2015,06,07,12,51,20.50
2015,06,07,12,52,20.50
2015,06,07,12,53,20.60
2015,06,07,12,54,20.70
2015,06,07,12,55,20.70
2015,06,07,12,56,20.70
2015,06,07,12,57,20.80
2015,06,07,12,58,20.90
2015,06,07,12,59,21.00
2015,06,07,13,00,21.20
2015,06,07,13,01,21.40
2015,06,07,13,02,21.50
2015,06,07,13,03,21.60
2015,06,07,13,04,21.60
2015,06,07,13,05,21.60
2015,06,07,13,06,21.60
2015,06,07,13,07,21.50
2015,06,07,13,08,21.40
2015,06,07,13,09,21.40
2015,06,07,13,10,21.40
2015,06,07,13,11,21.60
2015,06,07,13,12,21.60
2015,06,07,13,13,21.60
2015,06,07,13,14,21.60
2015,06,07,13,15,21.60
2015,06,07,13,16,21.60
2015,06,07,13,17,21.80
2015,06,07,13,18,22.00
2015,06,07,13,19,22.10
2015,06,07,13,20,22.10
2015,06,07,13,21,22.10
2015,06,07,13,22,22.20
2015,06,07,13,23,22.30
2015,06,07,13,24,22.30
2015,06,07,13,25,22.30
2015,06,07,13,26,22.40
2015,06,07,13,27,22.40
2015,06,07,13,28,22.50
2015,06,07,13,29,22.60
2015,06,07,13,30,22.60
2015,06,07,13,31,22.60
2015,06,07,13,32,22.60
2015,06,07,13,33,22.70
2015,06,07,13,34,22.70
2015,06,07,13,35,22.60
2015,06,07,13,36,22.60
2015,06,07,13,37,22.60
2015,06,07,13,38,22.70
2015,06,07,13,39,22.80
2015,06,07,13,40,22.80
2015,06,07,13,41,22.80
2015,06,07,13,42,22.70
2015,06,07,13,43,22.70
2015,06,07,13,44,22.60
2015,06,07,13,45,22.60
2015,06,07,13,46,22.60
2015,06,07,13,47,22.60
2015,06,07,13,48,22.60
2015,06,07,13,49,22.70
2015,06,07,13,50,22.80
2015,06,07,13,51,22.70
2015,06,07,13,52,22.70
2015,06,07,13,53,22.70
2015,06,07,13,54,22.70
2015,06,07,13,55,22.60
2015,06,07,13,56,22.50
2015,06,07,13,57,22.40
2015,06,07,13,58,22.30
2015,06,07,13,59,22.20
2015,06,07,14,00,22.00
2015,06,07,14,01,22.00
2015,06,07,14,02,21.90
2015,06,07,14,03,21.80
2015,06,07,14,04,21.80
2015,06,07,14,05,21.90
2015,06,07,14,06,22.00
2015,06,07,14,07,22.20
2015,06,07,14,08,22.30
2015,06,07,14,09,22.60
2015,06,07,14,10,22.70
2015,06,07,14,11,22.80
2015,06,07,14,12,23.00
2015,06,07,14,13,23.10
2015,06,07,14,14,23.30
2015,06,07,14,15,23.30
2015,06,07,14,16,23.30
2015,06,07,14,17,23.10
2015,06,07,14,18,22.90
2015,06,07,14,19,22.60
2015,06,07,14,20,22.30
2015,06,07,14,21,22.10
2015,06,07,14,22,21.90
2015,06,07,14,23,21.70
2015,06,07,14,24,21.60
2015,06,07,14,25,21.50
2015,06,07,14,26,21.40
2015,06,07,14,27,21.40
2015,06,07,14,28,21.40
2015,06,07,14,29,21.60
2015,06,07,14,30,21.60
2015,06,07,14,31,21.70
2015,06,07,14,32,21.80
2015,06,07,14,33,21.80
2015,06,07,14,34,21.90
2015,06,07,14,35,21.80
2015,06,07,14,36,21.80
2015,06,07,14,37,21.80
2015,06,07,14,38,21.80
2015,06,07,14,39,21.90
2015,06,07,14,40,21.90
2015,06,07,14,41,21.90
2015,06,07,14,42,21.90
2015,06,07,14,43,21.90
2015,06,07,14,44,21.80
2015,06,07,14,45,21.80
2015,06,07,14,46,21.70
2015,06,07,14,47,21.70
2015,06,07,14,48,21.70
2015,06,07,14,49,21.60
2015,06,07,14,50,21.60
2015,06,07,14,51,21.60
2015,06,07,14,52,21.50
2015,06,07,14,53,21.40
2015,06,07,14,54,21.40
2015,06,07,14,55,21.40
2015,06,07,14,56,21.40
2015,06,07,14,57,21.40
2015,06,07,14,58,21.40
2015,06,07,14,59,21.50
2015,06,07,15,00,21.60
2015,06,07,15,01,21.60
2015,06,07,15,02,21.60
2015,06,07,15,03,21.60
2015,06,07,15,04,21.60
2015,06,07,15,05,21.60
2015,06,07,15,06,21.60
2015,06,07,15,07,21.60
2015,06,07,15,08,21.60
2015,06,07,15,09,21.60
2015,06,07,15,10,21.60
2015,06,07,15,11,21.60
2015,06,07,15,12,21.60
2015,06,07,15,13,21.70
2015,06,07,15,14,21.80
2015,06,07,15,15,21.90
2015,06,07,15,16,21.90
2015,06,07,15,17,22.00
2015,06,07,15,18,22.00
2015,06,07,15,19,22.10
2015,06,07,15,20,22.20
2015,06,07,15,21,22.20
2015,06,07,15,22,22.20
2015,06,07,15,23,22.20
2015,06,07,15,24,22.20
2015,06,07,15,25,22.20
2015,06,07,15,26,22.20
2015,06,07,15,27,22.20
2015,06,07,15,28,22.20
2015,06,07,15,29,22.30
2015,06,07,15,30,22.30
2015,06,07,15,31,22.30
2015,06,07,15,32,22.40
2015,06,07,15,33,22.40
2015,06,07,15,34,22.40
2015,06,07,15,35,22.50
2015,06,07,15,36,22.60
2015,06,07,15,37,22.60
2015,06,07,15,38,22.70
2015,06,07,15,39,22.90
2015,06,07,15,40,22.90
2015,06,07,15,41,23.10
2015,06,07,15,42,23.20
2015,06,07,15,43,23.30
2015,06,07,15,44,23.30
2015,06,07,15,45,23.30
2015,06,07,15,46,23.20
2015,06,07,15,47,23.20
2015,06,07,15,48,23.00
2015,06,07,15,49,22.90
2015,06,07,15,50,22.90
2015,06,07,15,51,22.80
2015,06,07,15,52,22.70
2015,06,07,15,53,22.60
2015,06,07,15,54,22.60
2015,06,07,15,55,22.50
2015,06,07,15,56,22.50
2015,06,07,15,57,22.40
2015,06,07,15,58,22.40
2015,06,07,15,59,22.30
2015,06,07,16,00,22.20
2015,06,07,16,01,22.10
2015,06,07,16,02,22.00
2015,06,07,16,03,22.00
2015,06,07,16,04,21.90
2015,06,07,16,05,21.90
2015,06,07,16,06,21.80
2015,06,07,16,07,21.80
2015,06,07,16,08,21.90
2015,06,07,16,09,21.90
2015,06,07,16,10,21.90
2015,06,07,16,11,21.90
2015,06,07,16,12,21.90
2015,06,07,16,13,21.90
2015,06,07,16,14,21.80
2015,06,07,16,15,21.80
2015,06,07,16,16,21.80
2015,06,07,16,17,21.90
2015,06,07,16,18,22.00
2015,06,07,16,19,22.00
2015,06,07,16,20,22.10
2015,06,07,16,21,22.10
2015,06,07,16,22,22.10
2015,06,07,16,23,22.10
2015,06,07,16,24,22.00
2015,06,07,16,25,22.00
2015,06,07,16,26,22.00
2015,06,07,16,27,21.90
2015,06,07,16,28,21.90
2015,06,07,16,29,21.90
2015,06,07,16,30,21.90
2015,06,07,16,31,21.90
2015,06,07,16,32,22.00
2015,06,07,16,33,22.00
2015,06,07,16,34,22.00
2015,06,07,16,35,22.00
2015,06,07,16,36,21.90
2015,06,07,16,37,21.90
2015,06,07,16,38,21.90
2015,06,07,16,39,22.00
2015,06,07,16,40,22.10
2015,06,07,16,41,22.10
2015,06,07,16,42,22.20
2015,06,07,16,43,22.30
2015,06,07,16,44,22.30
2015,06,07,16,45,22.40
2015,06,07,16,46,22.40
2015,06,07,16,47,22.40
2015,06,07,16,48,22.40
2015,06,07,16,49,22.50
2015,06,07,16,50,22.60
2015,06,07,16,51,22.60
2015,06,07,16,52,22.60
2015,06,07,16,53,22.70
2015,06,07,16,54,22.70
2015,06,07,16,55,22.70
2015,06,07,16,56,22.70
2015,06,07,16,57,22.70
2015,06,07,16,58,22.70
2015,06,07,16,59,22.80
2015,06,07,17,00,22.80
2015,06,07,17,01,22.80
2015,06,07,17,02,22.70
2015,06,07,17,03,22.60
2015,06,07,17,04,22.50
2015,06,07,17,05,22.30
2015,06,07,17,06,22.30
2015,06,07,17,07,22.20
2015,06,07,17,08,22.10
2015,06,07,17,09,21.90
2015,06,07,17,10,21.80
2015,06,07,17,11,21.70
2015,06,07,17,12,21.60
2015,06,07,17,13,21.60
2015,06,07,17,14,21.60
2015,06,07,17,15,21.60
2015,06,07,17,16,21.60
2015,06,07,17,17,21.60
2015,06,07,17,18,21.60
2015,06,07,17,19,21.70